Time,TemperatureF,DewpointF,PressureIn,WindDirection,WindDirectionDegrees,WindSpeedMPH,WindSpeedGustMPH,Humidity,HourlyPrecipIn,Conditions,Clouds,dailyrainin,SoftwareType,DateUTC
2013-01-26 00:05:00,17.8,14.0,30.00,NW,325,0.0,-999.0,84,-99.99,,,0.00,weatherlink.com 1.10,2013-01-26 05:05:00,
2013-01-26 00:21:00,17.7,14.0,30.00,NW,325,0.0,-999.0,85,-99.99,,,0.00,weatherlink.com 1.10,2013-01-26 05:21:00,
2013-01-26 00:36:00,17.5,14.0,30.00,NW,325,0.0,-999.0,84,-99.99,,,0.00,weatherlink.com 1.10,2013-01-26 05:36:00,
2013-01-26 00:51:00,17.4,13.0,30.00,NW,325,0.0,-999.0,83,-99.99,,,0.00,weatherlink.com 1.10,2013-01-26 05:51:00,
2013-01-26 01:05:00,17.4,13.0,30.00,NW,326,1.0,-999.0,84,-99.99,,,0.00,weatherlink.com 1.10,2013-01-26 06:05:00,
2013-01-26 01:21:00,17.3,13.0,29.99,NNW,329,0.0,-999.0,84,-99.99,,,0.00,weatherlink.com 1.10,2013-01-26 06:21:00,
2013-01-26 01:36:00,17.2,13.0,29.99,NW,315,3.0,-999.0,84,-99.99,,,0.00,weatherlink.com 1.10,2013-01-26 06:36:00,
2013-01-26 01:51:00,17.0,12.0,29.98,NW,324,2.0,-999.0,82,-99.99,,,0.00,weatherlink.com 1.10,2013-01-26 06:51:00,
2013-01-26 02:06:00,16.7,12.0,29.98,NW,317,0.0,-999.0,82,-99.99,,,0.00,weatherlink.com 1.10,2013-01-26 07:06:00,
2013-01-26 02:21:00,16.3,12.0,29.97,NW,315,0.0,-999.0,82,-99.99,,,0.00,weatherlink.com 1.10,2013-01-26 07:21:00,
2013-01-26 02:35:00,16.0,12.0,29.96,NW,323,0.0,-999.0,83,-99.99,,,0.00,weatherlink.com 1.10,2013-01-26 07:35:00,
2013-01-26 02:51:00,15.7,12.0,29.96,NW,323,0.0,-999.0,84,-99.99,,,0.00,weatherlink.com 1.10,2013-01-26 07:51:00,
2013-01-26 03:06:00,15.4,11.0,29.96,NW,323,0.0,-999.0,84,-99.99,,,0.00,weatherlink.com 1.10,2013-01-26 08:06:00,
2013-01-26 03:22:00,15.1,11.0,29.95,NW,319,0.0,-999.0,85,-99.99,,,0.00,weatherlink.com 1.10,2013-01-26 08:22:00,
2013-01-26 03:36:00,14.9,11.0,29.95,NW,319,0.0,-999.0,84,-99.99,,,0.00,weatherlink.com 1.10,2013-01-26 08:36:00,
2013-01-26 03:51:00,14.7,11.0,29.95,NNW,330,2.0,-999.0,84,-99.99,,,0.00,weatherlink.com 1.10,2013-01-26 08:51:00,
2013-01-26 04:06:00,14.6,10.0,29.95,NW,316,3.0,-999.0,83,-99.99,,,0.00,weatherlink.com 1.10,2013-01-26 09:06:00,
2013-01-26 04:22:00,14.5,10.0,29.95,WNW,285,2.0,-999.0,82,-99.99,,,0.00,weatherlink.com 1.10,2013-01-26 09:22:00,
2013-01-26 04:37:00,14.4,10.0,29.95,NW,317,2.0,-999.0,83,-99.99,,,0.00,weatherlink.com 1.10,2013-01-26 09:37:00,
2013-01-26 04:51:00,14.3,10.0,29.95,North,350,1.0,-999.0,82,-99.99,,,0.00,weatherlink.com 1.10,2013-01-26 09:51:00,
2013-01-26 05:06:00,14.1,10.0,29.95,NW,324,3.0,-999.0,82,-99.99,,,0.00,weatherlink.com 1.10,2013-01-26 10:06:00,
2013-01-26 05:21:00,13.9,10.0,29.96,NW,318,1.0,-999.0,83,-99.99,,,0.00,weatherlink.com 1.10,2013-01-26 10:21:00,
2013-01-26 05:35:00,13.7,10.0,29.96,NNW,327,0.0,-999.0,83,-99.99,,,0.00,weatherlink.com 1.10,2013-01-26 10:35:00,
2013-01-26 05:52:00,13.6,9.0,29.96,NNW,328,0.0,-999.0,83,-99.99,,,0.00,weatherlink.com 1.10,2013-01-26 10:52:00,
2013-01-26 06:06:00,13.4,9.0,29.97,NNW,340,0.0,-999.0,83,-99.99,,,0.00,weatherlink.com 1.10,2013-01-26 11:06:00,
2013-01-26 06:24:00,13.2,9.0,29.97,NW,313,1.0,-999.0,82,-99.99,,,0.00,weatherlink.com 1.10,2013-01-26 11:24:00,
2013-01-26 06:36:00,13.1,9.0,29.98,NNW,342,3.0,-999.0,82,-99.99,,,0.00,weatherlink.com 1.10,2013-01-26 11:36:00,
2013-01-26 06:51:00,12.9,8.0,29.98,North,360,1.0,-999.0,81,-99.99,,,0.00,weatherlink.com 1.10,2013-01-26 11:51:00,
2013-01-26 07:05:00,12.8,8.0,29.99,WSW,252,7.0,-999.0,80,-99.99,,,0.00,weatherlink.com 1.10,2013-01-26 12:05:00,
2013-01-26 07:21:00,12.7,8.0,29.99,NNW,330,4.0,-999.0,80,-99.99,,,0.00,weatherlink.com 1.10,2013-01-26 12:21:00,
2013-01-26 07:36:00,12.8,7.0,29.99,NNW,342,5.0,-999.0,78,-99.99,,,0.00,weatherlink.com 1.10,2013-01-26 12:36:00,
2013-01-26 07:51:00,12.9,7.0,29.99,North,355,0.0,-999.0,76,-99.99,,,0.00,weatherlink.com 1.10,2013-01-26 12:51:00,
2013-01-26 08:07:00,13.0,7.0,29.99,NNW,344,2.0,-999.0,75,-99.99,,,0.00,weatherlink.com 1.10,2013-01-26 13:07:00,
2013-01-26 08:21:00,13.4,7.0,29.99,NNW,331,3.0,-999.0,74,-99.99,,,0.00,weatherlink.com 1.10,2013-01-26 13:21:00,
2013-01-26 08:36:00,13.9,6.0,29.99,NNW,337,4.0,-999.0,71,-99.99,,,0.00,weatherlink.com 1.10,2013-01-26 13:36:00,
2013-01-26 08:51:00,14.7,7.0,30.00,North,5,5.0,-999.0,70,-99.99,,,0.00,weatherlink.com 1.10,2013-01-26 13:51:00,
2013-01-26 09:06:00,15.5,6.0,30.00,NNW,331,1.0,-999.0,66,-99.99,,,0.00,weatherlink.com 1.10,2013-01-26 14:06:00,
2013-01-26 09:21:00,16.6,7.0,30.00,NW,310,4.0,-999.0,65,-99.99,,,0.00,weatherlink.com 1.10,2013-01-26 14:21:00,
2013-01-26 09:35:00,16.6,6.0,30.01,North,5,3.0,-999.0,63,-99.99,,,0.00,weatherlink.com 1.10,2013-01-26 14:35:00,
2013-01-26 09:50:00,17.2,6.0,30.01,WNW,298,5.0,-999.0,61,-99.99,,,0.00,weatherlink.com 1.10,2013-01-26 14:50:00,
2013-01-26 10:05:00,17.8,6.0,30.01,North,355,2.0,-999.0,61,-99.99,,,0.00,weatherlink.com 1.10,2013-01-26 15:05:00,
2013-01-26 10:21:00,18.3,6.0,30.00,NW,315,8.0,-999.0,60,-99.99,,,0.00,weatherlink.com 1.10,2013-01-26 15:21:00,
2013-01-26 10:35:00,18.8,7.0,30.00,NNE,21,1.0,-999.0,59,-99.99,,,0.00,weatherlink.com 1.10,2013-01-26 15:35:00,
2013-01-26 10:50:00,19.1,6.0,30.00,NW,317,5.0,-999.0,58,-99.99,,,0.00,weatherlink.com 1.10,2013-01-26 15:50:00,
2013-01-26 11:05:00,19.8,7.0,30.00,WNW,292,4.0,-999.0,58,-99.99,,,0.00,weatherlink.com 1.10,2013-01-26 16:05:00,
2013-01-26 11:20:00,20.7,7.0,30.00,NW,325,4.0,-999.0,55,-99.99,,,0.00,weatherlink.com 1.10,2013-01-26 16:20:00,
2013-01-26 11:36:00,21.1,7.0,29.98,WNW,300,2.0,-999.0,54,-99.99,,,0.00,weatherlink.com 1.10,2013-01-26 16:36:00,
2013-01-26 11:50:00,21.8,7.0,29.98,NNW,340,4.0,-999.0,52,-99.99,,,0.00,weatherlink.com 1.10,2013-01-26 16:50:00,
2013-01-26 12:06:00,22.2,7.0,29.98,North,350,2.0,-999.0,53,-99.99,,,0.00,weatherlink.com 1.10,2013-01-26 17:06:00,
2013-01-26 12:21:00,22.5,6.0,29.97,NNW,334,5.0,-999.0,50,-99.99,,,0.00,weatherlink.com 1.10,2013-01-26 17:21:00,
2013-01-26 12:36:00,22.7,6.0,29.97,WSW,254,3.0,-999.0,48,-99.99,,,0.00,weatherlink.com 1.10,2013-01-26 17:36:00,
2013-01-26 12:52:00,23.3,6.0,29.97,NW,325,5.0,-999.0,48,-99.99,,,0.00,weatherlink.com 1.10,2013-01-26 17:52:00,
2013-01-26 13:07:00,23.8,7.0,29.97,WNW,298,4.0,-999.0,48,-99.99,,,0.00,weatherlink.com 1.10,2013-01-26 18:07:00,
2013-01-26 13:21:00,24.2,4.0,29.96,NW,314,8.0,-999.0,41,-99.99,,,0.00,weatherlink.com 1.10,2013-01-26 18:21:00,
2013-01-26 13:36:00,24.2,4.0,29.97,NW,306,1.0,-999.0,41,-99.99,,,0.00,weatherlink.com 1.10,2013-01-26 18:36:00,
2013-01-26 13:52:00,24.4,0.0,29.97,NNW,329,10.0,-999.0,34,-99.99,,,0.00,weatherlink.com 1.10,2013-01-26 18:52:00,
2013-01-26 14:06:00,23.6,-2.0,29.97,NNW,332,6.0,-999.0,33,-99.99,,,0.00,weatherlink.com 1.10,2013-01-26 19:06:00,
2013-01-26 14:21:00,24.0,-3.0,29.97,NNW,330,7.0,-999.0,31,-99.99,,,0.00,weatherlink.com 1.10,2013-01-26 19:21:00,
2013-01-26 14:36:00,24.4,-2.0,29.98,NNE,20,2.0,-999.0,31,-99.99,,,0.00,weatherlink.com 1.10,2013-01-26 19:36:00,
2013-01-26 14:51:00,24.2,-3.0,29.98,North,5,0.0,-999.0,31,-99.99,,,0.00,weatherlink.com 1.10,2013-01-26 19:51:00,
2013-01-26 15:06:00,24.6,-3.0,29.99,NNW,333,8.0,-999.0,30,-99.99,,,0.00,weatherlink.com 1.10,2013-01-26 20:06:00,
2013-01-26 15:21:00,24.5,-2.0,30.00,NNW,327,6.0,-999.0,31,-99.99,,,0.00,weatherlink.com 1.10,2013-01-26 20:21:00,
2013-01-26 15:36:00,24.5,-1.0,30.00,West,268,6.0,-999.0,33,-99.99,,,0.00,weatherlink.com 1.10,2013-01-26 20:36:00,
2013-01-26 15:52:00,24.1,-1.0,30.01,NNW,340,4.0,-999.0,34,-99.99,,,0.00,weatherlink.com 1.10,2013-01-26 20:52:00,
2013-01-26 16:06:00,23.1,-1.0,30.01,NW,324,10.0,-999.0,35,-99.99,,,0.00,weatherlink.com 1.10,2013-01-26 21:06:00,
2013-01-26 16:21:00,22.5,-1.0,30.02,West,271,6.0,-999.0,35,-99.99,,,0.00,weatherlink.com 1.10,2013-01-26 21:21:00,
2013-01-26 16:36:00,22.1,-2.0,30.03,NNW,327,3.0,-999.0,34,-99.99,,,0.00,weatherlink.com 1.10,2013-01-26 21:36:00,
2013-01-26 16:51:00,21.8,-3.0,30.04,NNW,329,1.0,-999.0,33,-99.99,,,0.00,weatherlink.com 1.10,2013-01-26 21:51:00,
2013-01-26 17:06:00,21.7,-4.0,30.05,North,350,7.0,-999.0,32,-99.99,,,0.00,weatherlink.com 1.10,2013-01-26 22:06:00,
2013-01-26 17:21:00,21.6,-4.0,30.05,NNW,339,4.0,-999.0,32,-99.99,,,0.00,weatherlink.com 1.10,2013-01-26 22:21:00,
2013-01-26 17:36:00,21.3,-4.0,30.05,North,360,7.0,-999.0,32,-99.99,,,0.00,weatherlink.com 1.10,2013-01-26 22:36:00,
2013-01-26 17:51:00,21.1,-5.0,30.06,NNW,342,2.0,-999.0,31,-99.99,,,0.00,weatherlink.com 1.10,2013-01-26 22:51:00,
2013-01-26 18:06:00,20.9,-5.0,30.07,NNW,338,3.0,-999.0,31,-99.99,,,0.00,weatherlink.com 1.10,2013-01-26 23:06:00,
2013-01-26 18:21:00,20.6,-6.0,30.07,WNW,297,10.0,-999.0,31,-99.99,,,0.00,weatherlink.com 1.10,2013-01-26 23:21:00,
2013-01-26 18:36:00,20.4,-6.0,30.08,WNW,291,7.0,-999.0,31,-99.99,,,0.00,weatherlink.com 1.10,2013-01-26 23:36:00,
2013-01-26 18:51:00,20.3,-7.0,30.08,WNW,292,3.0,-999.0,30,-99.99,,,0.00,weatherlink.com 1.10,2013-01-26 23:51:00,
2013-01-26 19:06:00,19.9,-7.0,30.09,NNW,342,1.0,-999.0,30,-99.99,,,0.00,weatherlink.com 1.10,2013-01-27 00:06:00,
2013-01-26 19:21:00,19.5,-7.0,30.09,NW,313,5.0,-999.0,31,-99.99,,,0.00,weatherlink.com 1.10,2013-01-27 00:21:00,
2013-01-26 19:36:00,19.1,-5.0,30.10,NNW,335,3.0,-999.0,34,-99.99,,,0.00,weatherlink.com 1.10,2013-01-27 00:36:00,
2013-01-26 19:51:00,18.8,-5.0,30.11,NW,319,4.0,-999.0,34,-99.99,,,0.00,weatherlink.com 1.10,2013-01-27 00:51:00,
2013-01-26 20:06:00,18.5,-5.0,30.11,NNW,341,9.0,-999.0,35,-99.99,,,0.00,weatherlink.com 1.10,2013-01-27 01:06:00,
2013-01-26 20:21:00,18.0,-5.0,30.11,NNW,342,7.0,-999.0,36,-99.99,,,0.00,weatherlink.com 1.10,2013-01-27 01:21:00,
2013-01-26 20:36:00,17.7,-5.0,30.11,NNW,327,1.0,-999.0,37,-99.99,,,0.00,weatherlink.com 1.10,2013-01-27 01:36:00,
2013-01-26 20:51:00,17.5,-3.0,30.12,NW,306,7.0,-999.0,40,-99.99,,,0.00,weatherlink.com 1.10,2013-01-27 01:51:00,
2013-01-26 21:06:00,17.2,-3.0,30.12,NNW,348,5.0,-999.0,41,-99.99,,,0.00,weatherlink.com 1.10,2013-01-27 02:06:00,
2013-01-26 21:21:00,17.0,-2.0,30.13,NNW,337,3.0,-999.0,43,-99.99,,,0.00,weatherlink.com 1.10,2013-01-27 02:21:00,
2013-01-26 21:36:00,16.8,-2.0,30.13,NNW,336,8.0,-999.0,44,-99.99,,,0.00,weatherlink.com 1.10,2013-01-27 02:36:00,
2013-01-26 21:51:00,16.6,-1.0,30.14,NNW,328,5.0,-999.0,46,-99.99,,,0.00,weatherlink.com 1.10,2013-01-27 02:51:00,
2013-01-26 22:06:00,16.4,-1.0,30.14,NW,325,5.0,-999.0,46,-99.99,,,0.00,weatherlink.com 1.10,2013-01-27 03:06:00,
2013-01-26 22:21:00,16.3,0.0,30.15,NNW,338,8.0,-999.0,48,-99.99,,,0.00,weatherlink.com 1.10,2013-01-27 03:21:00,
2013-01-26 22:36:00,16.1,-1.0,30.16,NNW,337,2.0,-999.0,48,-99.99,,,0.00,weatherlink.com 1.10,2013-01-27 03:36:00,
2013-01-26 22:51:00,16.1,0.0,30.16,NW,316,3.0,-999.0,49,-99.99,,,0.00,weatherlink.com 1.10,2013-01-27 03:51:00,
2013-01-26 23:06:00,15.9,0.0,30.16,NW,310,2.0,-999.0,49,-99.99,,,0.00,weatherlink.com 1.10,2013-01-27 04:06:00,
2013-01-26 23:22:00,15.8,0.0,30.16,WNW,291,3.0,-999.0,50,-99.99,,,0.00,weatherlink.com 1.10,2013-01-27 04:22:00,
2013-01-26 23:37:00,15.8,1.0,30.16,NNW,332,9.0,-999.0,51,-99.99,,,0.00,weatherlink.com 1.10,2013-01-27 04:37:00,
2013-01-26 23:52:00,15.7,1.0,30.16,NW,321,3.0,-999.0,52,-99.99,,,0.00,weatherlink.com 1.10,2013-01-27 04:52:00,